When you browse on this site, cookies collect data to enhance your experience and personalize the content and advertising you see.
Visit our Privacy Policy to learn more. By continuing to use the site, you agree to this use of cookies and data.
  • In Portugal
  • List of Countries
  • For 7 days
  • Water Temperature
  • Weather Map
  • Weather Widgets
  • user-avatar
    Login

    Hourly Weather Ahwaz

    Today, 26 August, Monday

    Time Temperature Precipitation Wind Pressure Humidity
    00:00 +40°C° 0 mm 3 mps 749 mmHg 9%
    01:00 +38°C° 0 mm 3 mps 749 mmHg 11%
    02:00 +37°C° 0 mm 2 mps 749 mmHg 12%
    03:00 +35°C° 0 mm 2 mps 749 mmHg 14%
    04:00 +35°C° 0 mm 2 mps 749 mmHg 15%
    05:00 +36°C° 0 mm 3 mps 750 mmHg 15%
    06:00 +36°C° 0 mm 3 mps 750 mmHg 16%
    07:00 +39°C° 0 mm 3 mps 750 mmHg 14%
    08:00 +43°C° 0 mm 3 mps 750 mmHg 12%
    09:00 +46°C° 0 mm 3 mps 751 mmHg 11%
    10:00 +49°C° 0 mm 4 mps 750 mmHg 9%
    11:00 +51°C° 0 mm 4 mps 750 mmHg 8%
    12:00 +53°C° 0 mm 4 mps 750 mmHg 7%
    13:00 +53°C° 0 mm 4 mps 749 mmHg 6%
    14:00 +55°C° 0 mm 4 mps 749 mmHg 5%
    15:00 +55°C° 0 mm 3 mps 748 mmHg 5%
    16:00 +53°C° 0 mm 3 mps 748 mmHg 5%
    17:00 +51°C° 0 mm 3 mps 748 mmHg 6%
    18:00 +48°C° 0 mm 3 mps 748 mmHg 7%
    19:00 +45°C° 0 mm 2 mps 748 mmHg 8%
    20:00 +42°C° 0 mm 2 mps 748 mmHg 9%
    21:00 +40°C° 0 mm 2 mps 749 mmHg 11%
    22:00 +40°C° 0 mm 2 mps 749 mmHg 11%
    23:00 +40°C° 0 mm 2 mps 749 mmHg 11%

    Tomorrow, 27 August, Tuesday

    Time Temperature Precipitation Wind Pressure Humidity
    00:00 +39°C° 0 mm 3 mps 749 mmHg 11%
    01:00 +38°C° 0 mm 3 mps 749 mmHg 13%
    02:00 +37°C° 0 mm 3 mps 748 mmHg 15%
    03:00 +36°C° 0 mm 3 mps 748 mmHg 17%
    04:00 +35°C° 0 mm 3 mps 749 mmHg 20%
    05:00 +35°C° 0 mm 3 mps 749 mmHg 24%
    06:00 +35°C° 0 mm 3 mps 750 mmHg 27%
    07:00 +38°C° 0 mm 3 mps 750 mmHg 23%
    08:00 +42°C° 0 mm 3 mps 750 mmHg 19%
    09:00 +47°C° 0 mm 4 mps 750 mmHg 15%
    10:00 +48°C° 0 mm 3 mps 750 mmHg 13%
    11:00 +51°C° 0 mm 3 mps 750 mmHg 11%
    12:00 +53°C° 0 mm 3 mps 750 mmHg 8%
    13:00 +53°C° 0 mm 3 mps 749 mmHg 7%
    14:00 +54°C° 0 mm 3 mps 748 mmHg 7%
    15:00 +53°C° 0 mm 2 mps 748 mmHg 6%
    16:00 +52°C° 0 mm 3 mps 748 mmHg 7%
    17:00 +50°C° 0 mm 3 mps 748 mmHg 8%
    18:00 +47°C° 0 mm 3 mps 748 mmHg 9%
    19:00 +45°C° 0 mm 3 mps 748 mmHg 12%
    20:00 +42°C° 0 mm 3 mps 748 mmHg 15%
    21:00 +38°C° 0 mm 3 mps 748 mmHg 19%
    22:00 +38°C° 0 mm 3 mps 748 mmHg 19%
    23:00 +38°C° 0 mm 3 mps 748 mmHg 19%

    Day after tomorrow, 28 August, Wednesday

    Time Temperature Precipitation Wind Pressure Humidity
    00:00 +37°C° 0 mm 3 mps 748 mmHg 18%
    01:00 +37°C° 0 mm 3 mps 748 mmHg 21%
    02:00 +36°C° 0 mm 3 mps 748 mmHg 23%
    03:00 +35°C° 0 mm 4 mps 748 mmHg 25%
    04:00 +35°C° 0 mm 4 mps 749 mmHg 28%
    05:00 +34°C° 0 mm 4 mps 749 mmHg 32%
    06:00 +34°C° 0 mm 4 mps 749 mmHg 35%
    07:00 +37°C° 0 mm 4 mps 750 mmHg 30%
    08:00 +41°C° 0 mm 4 mps 750 mmHg 25%
    09:00 +45°C° 0 mm 4 mps 750 mmHg 20%
    10:00 +48°C° 0 mm 4 mps 750 mmHg 16%
    11:00 +50°C° 0 mm 3 mps 749 mmHg 13%
    12:00 +52°C° 0 mm 3 mps 749 mmHg 10%
    13:00 +53°C° 0 mm 3 mps 749 mmHg 8%
    14:00 +52°C° 0 mm 2 mps 748 mmHg 7%
    15:00 +53°C° 0 mm 2 mps 747 mmHg 6%
    16:00 +51°C° 0 mm 2 mps 747 mmHg 7%
    17:00 +50°C° 0 mm 3 mps 747 mmHg 8%
    18:00 +47°C° 0 mm 3 mps 747 mmHg 9%
    19:00 +45°C° 0 mm 3 mps 748 mmHg 12%
    20:00 +42°C° 0 mm 3 mps 748 mmHg 14%
    21:00 +39°C° 0 mm 3 mps 749 mmHg 17%
    22:00 +38°C° 0 mm 3 mps 749 mmHg 17%
    23:00 +38°C° 0 mm 3 mps 748 mmHg 18%

    29 August, Thursday

    Time Temperature Precipitation Wind Pressure Humidity
    00:00 +37°C° 0 mm 3 mps 748 mmHg 19%
    01:00 +36°C° 0 mm 3 mps 748 mmHg 22%
    02:00 +35°C° 0 mm 4 mps 748 mmHg 24%
    03:00 +35°C° 0 mm 4 mps 748 mmHg 27%
    04:00 +34°C° 0 mm 4 mps 749 mmHg 33%
    05:00 +34°C° 0 mm 4 mps 749 mmHg 39%
    06:00 +33°C° 0 mm 4 mps 749 mmHg 46%
    07:00 +36°C° 0 mm 4 mps 749 mmHg 38%
    08:00 +41°C° 0 mm 4 mps 749 mmHg 31%
    09:00 +44°C° 0 mm 4 mps 750 mmHg 23%
    10:00 +47°C° 0 mm 4 mps 749 mmHg 19%
    11:00 +50°C° 0 mm 4 mps 749 mmHg 15%
    12:00 +52°C° 0 mm 4 mps 749 mmHg 11%
    13:00 +52°C° 0 mm 4 mps 748 mmHg 10%
    14:00 +53°C° 0 mm 4 mps 748 mmHg 8%
    15:00 +53°C° 0 mm 3 mps 747 mmHg 7%
    16:00 +52°C° 0 mm 4 mps 747 mmHg 9%
    17:00 +50°C° 0 mm 4 mps 747 mmHg 10%
    18:00 +48°C° 0 mm 4 mps 747 mmHg 12%
    19:00 +44°C° 0 mm 4 mps 748 mmHg 17%
    20:00 +42°C° 0 mm 4 mps 748 mmHg 22%
    21:00 +38°C° 0 mm 4 mps 749 mmHg 27%
    22:00 +37°C° 0 mm 4 mps 749 mmHg 28%
    23:00 +36°C° 0 mm 3 mps 748 mmHg 30%

    30 August, Friday

    Time Temperature Precipitation Wind Pressure Humidity
    00:00 +35°C° 0 mm 3 mps 748 mmHg 32%
    01:00 +34°C° 0 mm 3 mps 748 mmHg 36%
    02:00 +34°C° 0 mm 3 mps 748 mmHg 40%
    03:00 +33°C° 0 mm 4 mps 748 mmHg 44%
    04:00 +33°C° 0 mm 4 mps 749 mmHg 48%
    05:00 +33°C° 0 mm 3 mps 749 mmHg 51%
    06:00 +33°C° 0 mm 3 mps 749 mmHg 55%
    07:00 +36°C° 0 mm 4 mps 749 mmHg 46%
    08:00 +40°C° 0 mm 4 mps 750 mmHg 36%
    09:00 +43°C° 0 mm 4 mps 750 mmHg 26%
    10:00 +45°C° 0 mm 4 mps 750 mmHg 21%
    11:00 +48°C° 0 mm 3 mps 749 mmHg 16%
    12:00 +51°C° 0 mm 3 mps 749 mmHg 11%
    13:00 +51°C° 0 mm 2 mps 748 mmHg 10%
    14:00 +50°C° 0 mm 1 mps 748 mmHg 9%
    15:00 +51°C° 0 mm 1 mps 747 mmHg 7%
    16:00 +49°C° 0 mm 1 mps 747 mmHg 8%
    17:00 +46°C° 0 mm 1 mps 747 mmHg 9%
    18:00 +44°C° 0 mm 1 mps 747 mmHg 10%
    19:00 +42°C° 0 mm 2 mps 747 mmHg 12%
    20:00 +41°C° 0 mm 2 mps 748 mmHg 15%
    21:00 +39°C° 0 mm 3 mps 748 mmHg 18%
    22:00 +39°C° 0 mm 3 mps 748 mmHg 19%
    23:00 +38°C° 0 mm 3 mps 748 mmHg 20%

    31 August, Saturday

    Time Temperature Precipitation Wind Pressure Humidity
    00:00 +37°C° 0 mm 3 mps 748 mmHg 21%
    01:00 +36°C° 0 mm 2 mps 747 mmHg 24%
    02:00 +34°C° 0 mm 2 mps 747 mmHg 27%
    03:00 +32°C° 0 mm 1 mps 747 mmHg 30%
    04:00 +34°C° 0 mm 2 mps 748 mmHg 28%
    05:00 +34°C° 0 mm 2 mps 748 mmHg 27%
    06:00 +35°C° 0 mm 3 mps 748 mmHg 26%
    07:00 +37°C° 0 mm 2 mps 748 mmHg 23%
    08:00 +40°C° 0 mm 2 mps 749 mmHg 19%
    09:00 +43°C° 0 mm 2 mps 749 mmHg 16%
    10:00 +45°C° 0 mm 1 mps 748 mmHg 14%
    11:00 +47°C° 0 mm 1 mps 748 mmHg 11%
    12:00 +47°C° 0 mm 0 mps 747 mmHg 9%
    13:00 +50°C° 0 mm 1 mps 747 mmHg 7%
    14:00 +52°C° 0 mm 2 mps 746 mmHg 6%
    15:00 +54°C° 0 mm 3 mps 746 mmHg 5%
    16:00 +52°C° 0 mm 3 mps 746 mmHg 5%
    17:00 +50°C° 0 mm 3 mps 746 mmHg 6%
    18:00 +47°C° 0 mm 3 mps 746 mmHg 6%
    19:00 +46°C° 0 mm 3 mps 746 mmHg 7%
    20:00 +45°C° 0 mm 4 mps 747 mmHg 7%
    21:00 +44°C° 0 mm 4 mps 747 mmHg 7%
    22:00 +43°C° 0 mm 4 mps 747 mmHg 8%
    23:00 +43°C° 0 mm 5 mps 747 mmHg 8%
    Show more